Location: Elkol
(41.7238°N, 110.6124°W)
Time: 08:51:51
(UTC+00:00)

Envisat - Pass Details

Date: 18 January 2022
Orbit: 764 x 765 km, 98.2° (Epoch: 21 May)

Event Time Altitude Azimuth Distance (km) Brightness Sun altitude
Rises 10:57:47 0° 32° (NNE) 3,237 6.7 -42.1°
Reaches altitude 10° 11:01:08 10° 56° (NE) 2,305 6.0 -41.5°
Maximum altitude 11:03:59 15° 90° (E) 1,974 5.7 -41.0°
Drops below altitude 10° 11:06:50 10° 125° (SE) 2,296 5.9 -40.5°
Sets 11:10:09 0° 148° (SSE) 3,217 6.5 -39.9°
